Thursday, September 20, 2018, 8:40 AM EDT
Back to Local

KPHL, Philadelphia International Airpt

Location: Philadelphia, PA, United States Lat: 39.867
Local Time: 8:40 AM EDT (12:40 GMT) Lon: -75.233
Time Zone: US/Eastern Elev: 19 ft

Show me the last for .
Show Decoded

2018-09-20 07:54 METAR KPHL 201154Z 11005KT 10SM SCT015 BKN020 OVC050 19/17 A3017 RMK AO2 SLP216
                 T01940172 10206 20194 51027 $ =
2018-09-20 06:54 METAR KPHL 201054Z 11009KT 10SM BKN018 OVC045 19/17 A3015 RMK AO2 SLP209
                 T01940172 $ =
2018-09-20 06:34 METAR KPHL 201034Z 11007KT 10SM OVC016 19/17 A3013 RMK AO2 T01940172 $ =
2018-09-20 06:13 METAR KPHL 201013Z 11007KT 10SM BKN012 BKN032 OVC045 20/18 A3012 RMK AO2
                 T02000178 $ =
2018-09-20 05:54 METAR KPHL 200954Z 12007KT 10SM BKN015 BKN031 OVC045 20/18 A3011 RMK AO2 SLP196
                 T02000178 $ =
2018-09-20 05:32 METAR KPHL 200932Z 12008KT 10SM BKN017 BKN026 OVC040 20/18 A3010 RMK AO2
                 T02000183 $ =
2018-09-20 04:54 METAR KPHL 200854Z 11005KT 10SM SCT020 BKN030 BKN047 20/18 A3009 RMK AO2 SLP188
                 T02000183 53005 $ =
2018-09-20 04:32 METAR KPHL 200832Z 10004KT 10SM SCT020 BKN030 BKN047 20/19 A3009 RMK AO2
                 T02000189 $ =
2018-09-20 03:54 METAR KPHL 200754Z 00000KT 8SM SCT015 BKN020 OVC031 21/19 A3008 RMK AO2 SLP186
                 T02060189 $ =
2018-09-20 03:32 METAR KPHL 200732Z 00000KT 8SM SCT015 BKN020 OVC043 21/19 A3008 RMK AO2
                 T02060189 $ =
2018-09-20 02:54 METAR KPHL 200654Z 00000KT 8SM FEW027 BKN040 BKN075 OVC160 20/19 A3007 RMK AO2
                 SLP183 T02000189 $ =
2018-09-20 02:43 METAR KPHL 200643Z 00000KT 8SM SCT038 BKN065 BKN150 21/19 A3007 RMK AO2
                 T02060189 $ =
2018-09-20 02:10 METAR KPHL 200610Z 13004KT 10SM SCT017 BKN031 BKN050 21/19 A3007 RMK AO2
                 T02060189 $ =
2018-09-20 01:54 METAR KPHL 200554Z 07003KT 10SM BKN022 BKN031 OVC045 21/19 A3007 RMK AO2 SLP183
                 T02060194 10256 20206 51010 $ =
2018-09-20 01:22 METAR KPHL 200522Z 11003KT 10SM BKN023 BKN045 BKN095 21/19 A3007 RMK AO2
                 T02060194 $ =
2018-09-20 01:09 METAR KPHL 200509Z 00000KT 10SM SCT020 SCT027 BKN055 21/19 A3007 RMK AO2
                 T02060189 $ =
2018-09-20 00:54 METAR KPHL 200454Z 16003KT 10SM BKN017 BKN026 OVC055 21/19 A3006 RMK AO2 SLP179
                 T02110194 402890194 $ =
2018-09-20 00:46 METAR KPHL 200446Z 13004KT 10SM BKN017 BKN026 OVC055 21/19 A3006 RMK AO2
                 T02110194 $ =
2018-09-19 23:54 METAR KPHL 200354Z 11006KT 10SM BKN011 BKN050 21/20 A3006 RMK AO2 SLP178
                 T02110200 $ =
2018-09-19 23:10 METAR KPHL 200310Z 00000KT 10SM BKN011 BKN050 BKN250 21/20 A3005 RMK AO2
                 T02110200 $ =
2018-09-19 22:54 METAR KPHL 200254Z 00000KT 10SM SCT050 21/20 A3005 RMK AO2 SLP173 T02110200
                 51025 $ =
2018-09-19 21:54 METAR KPHL 200154Z 09005KT 10SM SCT050 22/20 A3002 RMK AO2 SLP164 T02170200 $ =
2018-09-19 20:54 METAR KPHL 200054Z 34005KT 10SM FEW050 24/17 A3000 RMK AO2 SLP158 T02390167
                 VISNO W $ =
2018-09-19 19:54 METAR KPHL 192354Z VRB06KT 10SM FEW050 26/17 A2997 RMK AO2 SLP148 T02560167
                 10289 20256 53017 $ =
2018-09-19 18:54 METAR KPHL 192254Z 32008KT 10SM FEW050 27/17 A2995 RMK AO2 SLP141 T02670167 $ =
2018-09-19 17:54 METAR KPHL 192154Z 32009KT 10SM CLR 28/17 A2994 RMK AO2 SLP137 T02780167 $ =
2018-09-19 16:54 METAR KPHL 192054Z 32011G19KT 10SM FEW050 SCT260 28/16 A2992 RMK AO2 SLP131
                 T02830161 53002 $ =
2018-09-19 15:54 METAR KPHL 191954Z 34007KT 10SM SCT048 SCT260 29/18 A2991 RMK AO2 SLP127
                 T02890178 $ =
2018-09-19 14:54 METAR KPHL 191854Z 01010G17KT 10SM SCT049 SCT260 29/17 A2991 RMK AO2 SLP128
                 T02890172 =
2018-09-19 13:54 METAR KPHL 191754Z 01009KT 10SM SCT037 BKN049 BKN280 28/19 A2991 RMK AO2 SLP129
                 T02780189 10283 20211 50001 =
2018-09-19 12:54 METAR KPHL 191654Z 05006KT 10SM SCT035 BKN042 BKN280 28/19 A2992 RMK AO2 SLP131
                 T02780194 =
2018-09-19 11:54 METAR KPHL 191554Z 03012G16KT 10SM FEW030 BKN280 27/19 A2991 RMK AO2 SLP129
                 T02670189 =
2018-09-19 10:54 METAR KPHL 191454Z 36011G17KT 10SM FEW026 BKN280 26/19 A2991 RMK AO2 SLP128
                 T02610194 52011 =
2018-09-19 09:54 METAR KPHL 191354Z 01009KT 10SM BKN280 24/19 A2990 RMK AO2 SLP125 T02390189 =
2018-09-19 08:54 METAR KPHL 191254Z 35009KT 10SM SCT280 22/18 A2989 RMK AO2 SLP120 T02220183 =

Support USWX by starting your Amazon purchase here.